Regional Weather Roundup
Issued by NWS Bismarck, ND

Home | Current Version | Previous Version | Text Only | Print | Product List | Glossary On
Versions: 1 2 3 4 5 6 7 8 9 10 11 12 13 14 15 16 17 18 19 20 21 22 23 24 25 26 27 28 29 30 31 32 33 34 35 36 37 38 39 40 41 42 43 44 45 46 47 48 49 50
000
ASUS43 KBIS 191910
RWRBIS

NWR BROADCAST TEXT
NATIONAL WEATHER SERVICE BISMARCK ND
100 PM CST SUN FEB 19 2017

NOTE: "FAIR" INDICATES FEW OR NO CLOUDS BELOW 12,000 FEET WITH NO
SIGNIFICANT WEATHER AND/OR OBSTRUCTIONS TO VISIBILITY.


CITY           SKY/WX    TMP DP  RH WIND       PRES   REMARKS
WILLISTON      CLOUDY    36  32  85 E7        29.51F
MINOT          CLOUDY    39  35  86 E9        29.55S
MINOT AFB      NOT AVBL
BISMARCK       FAIR      43  35  73 E5        29.52F
DICKINSON      FAIR      48  36  63 SE8       29.43F
GARRISON         N/A     40  35  83 E10       29.51F
HETTINGER ARPT FAIR      53  35  50 SE6       29.47F
JAMESTOWN      FAIR      44  39  82 SE13      29.58F
CARRINGTON     FAIR      39  36  87 SE16      29.59F
HAZEN            N/A    N/A N/A N/A E6        29.52F
MANDAN         FAIR      43  36  75 SE9       29.51F
RUGBY            N/A     36  34  93 E18       29.58F
STANLEY        FOG       34  34 100 E14       29.53F VSB 1/4
TIOGA          FOG       32  32 100 E16       29.52F VSB 1
WATFORD CITY   FAIR      37  34  87 E5        29.49F
$$

CITY           SKY/WX    TMP DP  RH WIND       PRES   REMARKS
GRAND FORKS    CLOUDY    42  33  70 SE13      29.70F
GRAND FORKS AF FAIR      41  37  83 SE9       29.70F
DEVILS LAKE    FAIR      38  35  89 E14       29.61F
FARGO          FAIR      53  41  63 SE25G32   29.67F
CAVALIER       FAIR      36  32  87 E6        29.74F
GRAFTON        FAIR      36  36 100 E7        29.75F
GWINNER        FAIR      48  45  87 E16       29.63F
ROLLA          FAIR      32  32 100 E12       29.64F
$$

CITY           SKY/WX    TMP DP  RH WIND       PRES   REMARKS
ABERDEEN       FAIR      58  46  64 S23       29.59F
MOBRIDGE       FAIR      47  36  65 S10       29.49F
BUFFALO          N/A     63  33  32 S16       29.39F
RAPID CITY     FAIR      68  32  26 S15       29.49F
GLASGOW        CLOUDY    34  32  92 SE10      29.45S FOG
SIDNEY         FAIR      39  34  82 NE9       29.48F
WOLF POINT     CLOUDY    34  32  92 E9        29.48F FOG
GLENDIVE       FAIR      41  33  73 CALM      29.45F
MILES CITY     FAIR      47  34  60 NE3       29.43F
BAKER          FAIR      51  37  58 SE10      29.45F
$$

CITY           SKY/WX    TMP DP  RH WIND       PRES   REMARKS
BILLINGS       PTSUNNY   53  34  48 SW13      29.44R
GREAT FALLS    PTSUNNY   47  27  45 SW12      29.44R
REGINA         CLOUDY    36  30  80 SE20G30   29.55F
ESTEVAN        CLOUDY    34  30  86 E20G26    29.55F
$$




USA.gov is the U.S. government's official web portal to all federal, state and local government web resources and services.